CZ-6A DEB, 54514

Orbit data source: Space-Track

CZ-6A DEB, 54514 is space debris in SSO originally from a launch on Fri, 11 Nov 2022 UTC launched from the Taiyaun Space Center, China (TSC). Debris objects in space refer to the collection of defunct objects orbiting the Earth. Examples of debris include non-operational satellites, rocket bodies, and fragments generated from explosions, collisions, or faulty payload assembly.

Loading next visibility...
Identifier
54514, 2022-151JS
Orbit
SSO
Country
Flag of CNCN / PRC
Related business
Manufacturer
SAST
Mission
Spacecraft
Bus & Motor
Unknown
Mass
Unknown
Launch date (UTC)
2022-11-11 (4 years ago)
Launch vehicle
Unknown
Launch site
Taiyaun Space Center, China (TSC)
Object type
Payload
Rocket body
Debris
Shape & HBR
Unknown shape, 0.1 m
Radar Cross Section
Small (<0.1 m²)

Expand to show TLE details & history
Last TLE update: 22 hours ago

TLE from 22 hours ago
0 CZ-6A DEB
1 54514U 22151JS  26144.10808806  .00000217  00000-0  85281-4 0  9996
2 54514  98.6819 190.2075 0077266  27.5604 332.9646 14.37349275184740
Epoch: 2026-05-24T02:35Z
TLE epoch observation values (Epoch: 2026-05-24T02:35:38.808Z)
Latitude
-0.00006°
Longitude
-90.41916°
Altitude
721.111 km
Speed
7.521 km/s
True Right ascension
12h 40m 49s
True Declination
0° 00' 00"
Sunlit
Object was in full shadow at epoch
Visualization orbit readout
Latitude
Unknown
Longitude
Unknown
Altitude
Unknown
Speed
Unknown
Apparent Right ascension
Unknown
Apparent Declination
Unknown
Sunlit
N/A
Visualization observer readout
Local Sidereal Time
09:56:50
Azimuth
Unknown
Elevation
Unknown
Doppler factor
Unknown
Orbital elements
Apogee altitude
819.591 km
Perigee altitude
709.216 km
Semi-major axis
7,142.541 km
Eccentricity
0.00773
Inclination
98.6819°
RAAN
190.2075°
Arg. of periapsis
27.5604°
True anomaly
332.55866°
Mean anomaly
332.9646°
Eccentric anomaly
332.76198°
Mean motion
3.59554 °/min
Orbital period
100.12 mins
BSTAR
0.000085281
Loading maneuver chart data...
Computing Atmospheric mass density...
Loading historical data...
Loading historical data...
Loading historical data...
Loading historical data...
Loading historical data...
Loading historical data...
Loading historical data...

Documentation

Showing up to 5 results
|